Miscellaneous Local Product
Issued by NWS Hastings, NE

Home | Current Version | Previous Version | Graphics & Text | Print | Product List | Glossary On
Versions: 1 2 3 4 5 6 7 8 9 10 11 12 13 14 15 16 17 18 19 20 21 22 23 24 25 26 27 28 29 30 31 32 33 34 35 36 37 38 39 40 41 42 43 44 45 46 47 48 49 50
000
AXUS43 KGID 031402
MISGRI

GID CWA HOURLY WEATHER ROUNDUP
NATIONAL WEATHER SERVICE HASTINGS NE
900 AM CDT FRI JUL 03 2015

NOTE: "FAIR" INDICATES FEW OR NO CLOUDS BELOW 12,000 FEET WITH NO
SIGNIFICANT WEATHER AND/OR OBSTRUCTIONS TO VISIBILITY.

...SOUTH CENTRAL NEBRASKA...

CITY           SKY/WX    TMP DP  RH WIND       PRES   REMARKS
GRAND ISLAND   CLOUDY    66  62  87 NE6       30.05S FOG
HASTINGS       CLOUDY    67  62  84 NE10      30.04S
KEARNEY        CLOUDY    64  59  82 N9        30.06R
ORD            CLOUDY    66  61  84 N5        30.04S
YORK           CLOUDY    64  63  94 NE6       30.04R FOG
AURORA         CLOUDY    66  65  97 NE7       30.04S FOG
LEXINGTON      CLOUDY    65  64  97 N3        30.07S FOG
HOLDREGE       CLOUDY    63  61  92 N3        30.07R FOG
HEBRON         CLOUDY    66  63  91 E3        30.02R FOG

...NEBRASKA PANHANDLE...

CITY           SKY/WX    TMP DP  RH WIND       PRES   REMARKS
CHADRON        SUNNY     64  59  83 CALM      30.11S
ALLIANCE       SUNNY     67  60  78 CALM      30.13S
SCOTTSBLUFF    SUNNY     69  59  70 CALM      30.13F
SIDNEY         MOSUNNY   67  61  81 NW3       30.16S

...WESTERN AND NORTH CENTRAL NEBRASKA...

CITY           SKY/WX    TMP DP  RH WIND       PRES   REMARKS
VALENTINE      SUNNY     67  62  84 W5        30.06F
AINSWORTH      SUNNY     66  66 100 CALM      30.07S
ONEILL         FOG       64  63  99 CALM      30.05S VSB 3/4
BROKEN BOW     MOSUNNY   68  62  81 N8        30.07R
IMPERIAL       SUNNY     71  59  65 N6        30.10S
NORTH PLATTE   SUNNY     65  60  84 CALM      30.09S
MCCOOK         MOSUNNY   67  62  84 E6        30.08R HAZE

...EASTERN NEBRASKA...

CITY           SKY/WX    TMP DP  RH WIND       PRES   REMARKS
NORFOLK        CLOUDY    65  63  93 CALM      30.03R FOG
SO SIOUX CITY  SUNNY     62  57  83 CALM      30.02S
TEKAMAH        SUNNY     64  58  80 N5        30.02S
COLUMBUS       CLOUDY    64  57  77 NE3       30.04R
ALBION         CLOUDY    65  60  83 CALM      30.05R HAZE
OMAHA EPPLEY   SUNNY     63  57  81 N5        30.02R
OFFUTT AFB     SUNNY     65  57  76 N2        30.01R
MILLARD        SUNNY     66  56  70 CALM      30.02R
LINCOLN        SUNNY     68  58  70 N6        30.03R
NEBRASKA CITY  SUNNY     64  55  74 NE3       30.00S
BEATRICE       CLOUDY    65  60  85 NE5       30.01R
FALLS CITY     SUNNY     67  60  78 NE7       29.98S

...NORTHERN KANSAS...

CITY           SKY/WX    TMP DP  RH WIND       PRES   REMARKS
GOODLAND       MOSUNNY   72  61  68 N5        30.11S
HILL CITY      CLOUDY    68  63  84 NE8       30.07R HAZE
NORTON         FOG       63  59  88 NE3       30.07S VSB 3/4
PHILLIPSBURG   SUNNY     72  63  73 NW12      30.06R
SMITH CENTER   CLOUDY    66  63  88 N7        30.05S
HAYS           PTSUNNY   66  57  72 NE9       30.05S
RUSSELL        CLOUDY    66  64  93 N10       30.02R
CONCORDIA      CLOUDY    69  65  86 NE8       30.01R FOG
SALINA         CLOUDY    71  66  84 N12       29.98R
TOPEKA         LGT RAIN  66  65  96 NE8       29.96R



USA.gov is the U.S. government's official web portal to all federal, state and local government web resources and services.